Regional Weather Roundup
Issued by NWS Northern Indiana

Home | Current Version | Previous Version | Graphics & Text | Print | Product List | Glossary On
Versions: 1 2 3 4 5 6 7 8 9 10 11 12 13 14 15 16 17 18 19 20 21 22 23 24 25 26 27 28 29 30 31 32 33 34 35 36 37 38 39 40 41 42 43 44 45 46 47 48 49 50
483
ASUS43 KIWX 060610
RWRIWX

KIWX WEATHER ROUNDUP
NATIONAL WEATHER SERVICE NORTHERN INDIANA
100 AM EST SAT FEB 06 2016

NOTE: "FAIR" INDICATES FEW OR NO CLOUDS BELOW 12,000 FEET WITH NO
SIGNIFICANT WEATHER AND/OR OBSTRUCTIONS TO VISIBILITY.

* THESE STATIONS ARE NOT UNDER NWS QUALITY CONTROL. THEY ALSO MAY NOT
  REPORT WEATHER SUCH AS PRECIPITATION OR FOG.

INZ001>027-060700-
NORTHERN INDIANA

CITY           SKY/WX    TMP DP  RH WIND       PRES   REMARKS
GARY*          CLEAR     27  22  81 CALM      30.33S
VALPARAISO     CLEAR     24  21  88 W6        30.32S WCI  17
6HR MIN TEMP:  24; 6HR MAX TEMP:  30;

MICHIGAN CITY* CLEAR     25  23  93 SW5       30.32S WCI  19
LAPORTE*       MOCLDY    26  26 100 W5        30.32S FOG     WCI  20
6HR MIN TEMP:  25; 6HR MAX TEMP:  31;

SOUTH BEND     PTCLDY    22  19  89 SW3       30.31S
6HR MIN TEMP:  21; 6HR MAX TEMP:  28;

GOSHEN         CLEAR     24  21  88 SW3       30.30F
6HR MIN TEMP:  24; 6HR MAX TEMP:  30;

MONTICELLO*    CLEAR     23  20  87 CALM      30.32F
6HR MIN TEMP:  23; 6HR MAX TEMP:  29;

LOGANSPORT*    CLEAR     25  21  86 W6        30.33S WCI  18
ROCHESTER*     CLEAR     30  23  74 CALM      30.32S
WARSAW*        CLEAR     23  23 100 W3        30.31S FOG
ANGOLA*        PTCLDY    25  23  93 CALM      30.28S
FORT WAYNE     MOCLDY    30  24  78 W3        30.31F
6HR MIN TEMP:  30; 6HR MAX TEMP:  31; 6HR PCP: TRACE;

HUNTINGTON*    PTCLDY    27  23  83 CALM      30.31S
6HR MIN TEMP:  26; 6HR MAX TEMP:  30;

PERU/GRISSOM   CLOUDY    23  21  95 W5        30.30S WCI  16
6HR MIN TEMP:  23; 6HR MAX TEMP:  29;

MARION*        CLOUDY    25  18  75 W3        30.32F
6HR MIN TEMP:  -1; 6HR MAX TEMP:  59;


$$
INZ028>050-060700-
CENTRAL INDIANA

CITY           SKY/WX    TMP DP  RH WIND       PRES   REMARKS
LAFAYETTE      CLOUDY    21  19  92 CALM      30.34S
6HR MIN TEMP:  21; 6HR MAX TEMP:  28;

KOKOMO*        CLOUDY    25  19  80 W5        30.32S WCI  19
6HR MIN TEMP:  25; 6HR MAX TEMP:  30;

MUNCIE*        CLOUDY    26  21  81 SW3       30.32S
6HR MIN TEMP:  25; 6HR MAX TEMP:  32;

INDIANAPOLIS   CLOUDY    24  19  81 CALM      30.33S
6HR MIN TEMP:  23; 6HR MAX TEMP:  29;


$$
MIZ043>046-050>051-056>058-064>065-071>073-077>080-060700-
SOUTHWEST LOWER MICHIGAN

CITY           SKY/WX    TMP DP  RH WIND       PRES   REMARKS
BATTLE CREEK   MOCLDY    24  19  81 SW5       30.28F WCI  18
6HR MIN TEMP:  23; 6HR MAX TEMP:  30;

BENTON HARBOR  CLEAR     26  21  81 S6        30.30S WCI  19
6HR MIN TEMP:  26; 6HR MAX TEMP:  30;

COLDWATER*     CLEAR     21  19  93 CALM      30.28F
HILLSDALE*     CLEAR     24  22  89 W5        30.26F WCI  19
6HR MIN TEMP:  24; 6HR MAX TEMP:  30;

HOLLAND        CLEAR     22  18  85 CALM      30.28F
6HR MIN TEMP:  22; 6HR MAX TEMP:  29;

GRAND RAPIDS   CLEAR     24  18  77 W3        30.27F
6HR MIN TEMP:  24; 6HR MAX TEMP:  28;

KALAMAZOO      CLEAR     24  19  81 SW6       30.28F WCI  17
6HR MIN TEMP:  24; 6HR MAX TEMP:  30;

STURGIS*       PTCLDY    21  20  95 CALM      30.28F
6HR MIN TEMP:  21; 6HR MAX TEMP:  29;

THREE RIVERS*  FAIR      24  22  91 SW3       30.30S
6HR MIN TEMP:  22; 6HR MAX TEMP:  30;


$$
OHZ001>008-015>018-024>025-060700-
NORTHWEST OHIO

CITY           SKY/WX    TMP DP  RH WIND       PRES   REMARKS
DEFIANCE       CLEAR     30  24  78 W5        30.30S WCI  25
6HR MIN TEMP:  30; 6HR MAX TEMP:  33;

FINDLAY        CLOUDY    28  23  81 W8        30.29S WCI  20
6HR MIN TEMP:  26; 6HR MAX TEMP:  36;

TOLEDO EXPRESS CLEAR     26  23  88 W5        30.29S WCI  20
6HR MIN TEMP:  26; 6HR MAX TEMP:  35;

TOLEDO METCALF CLEAR     28  22  78 SW8       30.29F WCI  20
6HR MIN TEMP:  28; 6HR MAX TEMP:  36;

LIMA           CLOUDY    26  22  84 W7        30.30S WCI  18
6HR MIN TEMP:  26; 6HR MAX TEMP:  34;


$$
AND FOR LAKE MICHIGAN COASTAL AND OPEN LAKE BUOY OBSERVATIONS

STATION/POSITION TEMP    WIND        PRES    VSBY  WAVE
                 AIR SEA DIR/SP/G                  HT/PER
                 (F)     (DEG/KT/KT) (MB)    (MI)  (FT/S)
CALUMET HARBOR    27     210/  5/  8 1025.9F
MICHIGAN CITY     27     180/  8/  9   N/A
BURNS HARBOR      27     220/  8/ 11 1027.4S
SAINT JOSEPH      28     160/  6/ 10 1026.8S

$$
&&




USA.gov is the U.S. government's official web portal to all federal, state and local government web resources and services.